Location: Karcze
(52.0945°N, 22.4786°E)
Time: 22:24:32
(UTC+00:00)

Transit 4A - Pass Details

Date: 06 August 2021
Orbit: 871 x 974 km, 66.8° (Epoch: 18 September)

Event Time Altitude Azimuth Distance (km) Brightness Sun altitude
Exits shadow 23:29:55 - 261° (W) 3,226 10.5 -20.5°
Reaches altitude 10° 23:32:01 10° 270° (W) 2,528 10.0 -20.4°
Maximum altitude 23:37:06 30° 331° (NNW) 1,518 9.4 -20.2°
Drops below altitude 10° 23:42:12 10° 32° (NNE) 2,533 11.3 -20.0°
Sets 23:45:01 0° 43° (NE) 3,480 12.0 -19.9°
